Date String (YYYY-MM-DD hh:mm:ss) UTC,Instrument flags,Ambient pressure (hPa),Sample flow (lpm),Bypass flow (lpm),Sample temperature (°C),Ambient temperature (°C),ASC tube jacket temperature (°C),LED temperature (°C),Box temperature (°C),Sample RH (%),Span deviation,Mass concentration (μg/m³),Mass concentration (μg/m³),Mass concentration (μg/m³)
DateTimeUTC,F1_M11,P_M11,Q1_M11,Q2_M11,T1_M11,T2_M11,T3_M11,T4_M11,T5_M11,U1_M11,ZSPAN_M11,X2_M11,X0_M11,X1_M11
2022-05-07 16:00:00,,0815.7,5.01,0.00,29.8,28.6,00.0,38.6,31.6,13.0,0000.0,0003.79,0011.49,0002.26
2022-05-07 16:01:00,,0816.1,5.00,0.00,29.8,28.7,00.0,38.6,31.7,13.1,0000.0,0003.76,0010.97,0002.26
2022-05-07 16:02:00,,0816.0,4.97,0.00,29.9,28.8,00.0,38.7,31.7,13.6,0000.0,0003.75,0011.83,0002.26
2022-05-07 16:03:00,,0815.7,5.00,0.00,29.9,28.2,00.0,38.7,31.6,13.7,0000.0,0003.70,0011.84,0002.25
2022-05-07 16:04:00,,0815.4,5.00,0.00,29.8,26.2,00.0,38.7,31.1,14.3,0000.0,0003.73,0011.91,0002.24
2022-05-07 16:05:00,,0815.4,5.00,0.00,29.6,25.7,00.0,38.6,31.0,14.1,0000.0,0003.79,0011.67,0002.26
2022-05-07 16:06:00,,0815.3,5.00,0.00,29.6,26.2,00.0,38.6,31.1,13.6,0000.0,0003.82,0011.66,0002.27
2022-05-07 16:07:00,,0815.4,5.01,0.00,29.5,26.6,00.0,38.6,31.1,13.2,0000.0,0003.87,0013.21,0002.26
2022-05-07 16:08:00,,0815.3,5.00,0.00,29.5,27.0,00.0,38.5,31.2,14.5,0000.0,0003.92,0014.19,0002.25
2022-05-07 16:09:00,,0815.3,4.99,0.00,29.5,27.4,00.0,38.5,31.2,14.3,0000.0,0003.98,0014.07,0002.26
2022-05-07 16:10:00,,0815.3,5.00,0.00,29.6,27.7,00.0,38.5,31.3,14.9,0000.0,0004.01,0014.27,0002.25
2022-05-07 16:11:00,,0815.3,5.01,0.00,29.6,28.0,00.0,38.5,31.4,14.5,0000.0,0004.01,0014.58,0002.23
2022-05-07 16:12:00,,0815.3,5.00,0.00,29.6,28.2,00.0,38.5,31.4,14.7,0000.0,0004.04,0014.42,0002.25
2022-05-07 16:13:00,,0815.3,5.00,0.00,29.7,28.3,00.0,38.5,31.5,14.6,0000.0,0004.06,0013.26,0002.27
2022-05-07 16:14:00,,0815.3,4.99,0.00,29.7,28.5,00.0,38.5,31.5,14.8,0000.0,0004.12,0012.75,0002.28
2022-05-07 16:15:00,,0815.4,5.00,0.00,29.7,28.6,00.0,38.5,31.6,15.1,0000.0,0004.10,0012.63,0002.29
2022-05-07 16:16:00,,0815.5,5.00,0.00,29.8,28.7,00.0,38.6,31.7,14.7,0000.0,0003.98,0012.26,0002.28
2022-05-07 16:17:00,,0815.4,5.02,0.00,29.8,27.8,00.0,38.6,31.5,14.7,0000.0,0003.95,0011.95,0002.27
2022-05-07 16:18:00,,0815.4,5.00,0.00,29.6,25.9,00.0,38.6,31.1,16.4,0000.0,0003.92,0010.89,0002.29
2022-05-07 16:19:00,,0815.4,5.00,0.00,29.6,25.8,00.0,38.5,31.0,15.9,0000.0,0003.94,0010.85,0002.30
2022-05-07 16:20:00,,0815.4,5.00,0.00,29.5,26.2,00.0,38.5,31.1,15.6,0000.0,0003.99,0011.37,0002.31
2022-05-07 16:21:00,,0815.4,5.00,0.00,29.5,26.6,00.0,38.4,31.1,15.7,0000.0,0003.99,0011.37,0002.32
2022-05-07 16:22:00,,0815.3,5.00,0.00,29.5,27.1,00.0,38.4,31.2,15.9,0000.0,0004.00,0010.73,0002.33
2022-05-07 16:23:00,,0815.3,5.00,0.00,29.5,27.4,00.0,38.4,31.2,15.7,0000.0,0004.04,0010.87,0002.33
2022-05-07 16:24:00,,0815.3,5.01,0.00,29.5,27.7,00.0,38.4,31.3,16.0,0000.0,0004.05,0011.00,0002.33
2022-05-07 16:25:00,,0815.3,5.00,0.00,29.5,27.9,00.0,38.4,31.3,16.8,0000.0,0004.04,0010.95,0002.35
2022-05-07 16:26:00,,0815.3,5.00,0.00,29.6,28.1,00.0,38.4,31.4,17.2,0000.0,0004.05,0011.84,0002.39
2022-05-07 16:27:00,,0815.3,5.00,0.00,29.6,28.3,00.0,38.4,31.4,17.0,0000.0,0004.10,0012.11,0002.43
2022-05-07 16:28:00,,0815.3,5.00,0.00,29.6,28.4,00.0,38.4,31.5,17.4,0000.0,0004.11,0012.93,0002.45
2022-05-07 16:29:00,,0815.3,5.01,0.00,29.7,28.5,00.0,38.5,31.5,17.1,0000.0,0004.12,0013.40,0002.48
2022-05-07 16:30:00,,0815.3,5.01,0.00,29.7,28.6,00.0,38.5,31.6,17.1,0000.0,0004.16,0012.79,0002.51
2022-05-07 16:31:00,,0815.2,5.00,0.00,29.8,28.4,00.0,38.5,31.5,17.9,0000.0,0004.12,0012.38,0002.53
2022-05-07 16:32:00,,0815.3,5.00,0.00,29.7,26.4,00.0,38.5,31.1,17.2,0000.0,0004.14,0012.40,0002.57
2022-05-07 16:33:00,,0815.3,5.01,0.00,29.5,25.4,00.0,38.5,30.9,18.2,0000.0,0004.17,0013.18,0002.61
2022-05-07 16:34:00,,0815.2,4.99,0.00,29.5,25.8,00.0,38.4,31.0,19.4,0000.0,0004.16,0013.69,0002.66
2022-05-07 16:35:00,,0815.2,4.99,0.00,29.4,26.2,00.0,38.4,31.0,20.2,0000.0,0004.18,0013.96,0002.70
2022-05-07 16:36:00,,0815.3,5.00,0.00,29.4,26.7,00.0,38.4,31.1,18.3,0000.0,0004.24,0014.11,0002.77
2022-05-07 16:37:00,,0815.2,5.00,0.00,29.4,27.1,00.0,38.3,31.1,18.7,0000.0,0004.32,0013.90,0002.82
2022-05-07 16:38:00,,0815.4,5.00,0.00,29.4,27.5,00.0,38.3,31.2,18.2,0000.0,0004.37,0013.58,0002.85
2022-05-07 16:39:00,,0815.2,5.00,0.00,29.5,27.8,00.0,38.3,31.3,18.5,0000.0,0004.40,0013.14,0002.86
2022-05-07 16:40:00,,0815.0,5.00,0.00,29.5,28.0,00.0,38.3,31.3,17.6,0000.0,0004.44,0012.04,0002.86
2022-05-07 16:41:00,,0815.1,5.00,0.00,29.5,28.2,00.0,38.3,31.4,15.4,0000.0,0004.34,0011.86,0002.85
2022-05-07 16:42:00,,0815.1,5.00,0.00,29.6,28.3,00.0,38.4,31.4,17.2,0000.0,0004.31,0011.79,0002.84
2022-05-07 16:43:00,,0815.1,5.01,0.00,29.6,28.4,00.0,38.4,31.5,17.5,0000.0,0004.30,0012.15,0002.83
2022-05-07 16:44:00,,0815.2,5.01,0.00,29.6,28.6,00.0,38.4,31.5,17.1,0000.0,0004.29,0011.27,0002.82
2022-05-07 16:45:00,,0815.1,5.00,0.00,29.7,28.6,00.0,38.4,31.5,17.2,0000.0,0004.27,0010.68,0002.78
2022-05-07 16:46:00,,0815.2,4.99,0.00,29.6,27.2,00.0,38.5,31.2,17.2,0000.0,0004.24,0010.48,0002.74
2022-05-07 16:47:00,,0815.3,5.01,0.00,29.5,25.5,00.0,38.4,30.9,17.1,0000.0,0004.17,0010.43,0002.66
2022-05-07 16:48:00,,0815.1,5.00,0.00,29.4,25.7,00.0,38.4,30.9,17.1,0000.0,0004.10,0010.22,0002.60
2022-05-07 16:49:00,,0815.0,4.99,0.00,29.4,26.1,00.0,38.4,31.0,17.1,0000.0,0004.09,0010.70,0002.57
2022-05-07 16:50:00,,0815.0,5.01,0.00,29.3,26.6,00.0,38.3,31.0,17.2,0000.0,0004.10,0010.76,0002.55
2022-05-07 16:51:00,,0815.0,4.99,0.00,29.3,27.0,00.0,38.3,31.0,16.9,0000.0,0004.11,0011.32,0002.55
2022-05-07 16:52:00,,0815.0,5.00,0.00,29.4,27.3,00.0,38.3,31.1,15.8,0000.0,0004.16,0011.25,0002.56
2022-05-07 16:53:00,,0815.0,5.01,0.00,29.4,27.6,00.0,38.3,31.2,15.9,0000.0,0004.16,0011.44,0002.57
2022-05-07 16:54:00,,0815.1,5.00,0.00,29.4,27.9,00.0,38.3,31.3,15.3,0000.0,0004.12,0010.89,0002.55
2022-05-07 16:55:00,,0815.0,5.00,0.00,29.5,28.1,00.0,38.3,31.3,15.8,0000.0,0004.08,0011.09,0002.52
2022-05-07 16:56:00,,0815.0,5.00,0.00,29.5,28.3,00.0,38.3,31.4,15.8,0000.0,0004.08,0011.58,0002.50
2022-05-07 16:57:00,,0815.0,5.00,0.00,29.5,28.4,00.0,38.3,31.4,15.2,0000.0,0004.10,0012.05,0002.50
2022-05-07 16:58:00,,0814.9,5.00,0.00,29.6,28.5,00.0,38.3,31.4,15.5,0000.0,0004.12,0012.14,0002.52
2022-05-07 16:59:00,,0814.9,5.00,0.00,29.6,28.5,00.0,38.4,31.5,15.4,0000.0,0004.10,0012.59,0002.50
